Kodiak, AK

12:10 PM AKST en Diciembre 11, 2017 (GMT -0900)
Kodiak

Tiempo Historia de PADQ - Diciembre, 2017

Change the Weather History Date:

Jueves, Diciembre 7, 2017

  Actual Average Record
Temperature  
Temperatura media 42 ° F 31 ° F  
Temperatura máxima 43 ° F 36 ° F 47 ° F (2014)
Temperatura mínima 40 ° F 27 ° F -1 ° F (1970)
Degree Days  
Grados día de calefacción 23 34  
Month to date heating degree days 192 233  
Since 1 July heating degree days 2755 3028  
Cooling Degree Days 0 0  
Month to date cooling degree days 0 0  
Year to date cooling degree days 0 1  
Moisture  
Punto de rocío 40 ° F    
Average Humidity 93    
Maximum Humidity 100    
Minimum Humidity 85    
Precipitación  
Precipitación 0.41 pul 0.29 pul 2.68 pul (1988)
Month to date precipitation 2.59 1.94  
Year to date precipitation 57.43 71.21  
Nieve  
Nieve 0.00 pul 0.40 pul 4.00 pul (1988)
Month to date snowfall 0.0 3.1  
Since 1 July snowfall 8.5 10.6  
Since 1 September snowfall 8.5 10.6  
Grosos de nieve 0.00 pul    
Presión al nivel del mar  
Presión al nivel del mar 29.38 pul    
Viento  
Velocidad del viento 15 mph (ESE)    
Velocidad máxima del viento 25 mph    
Max Gust Speed 30 mph    
Visibilidad 6 Millas    
Eventos Lluvia    
T = Trace of Precipitation, MM = Missing Value Source: NWS Daily Summary

Daily Weather History Graph

Daily Weather History Graph

Search for Another Location

Airport or City:

Trip Planner

Search our weather history database for the weather conditions in past years. The results will help you decide how hot, cold, wet, or windy it might be!

Date:

Astronomía

Dec. 07, 2017 Salida Puesta
Hora real 9:38 AM AKST 4:24 PM AKST
Crepúsculo civil 8:48 AM AKST 5:14 PM AKST
Crepúsculo náutico 7:57 AM AKST 6:05 PM AKST
Crepúsculo astronómico 7:09 AM AKST 6:53 PM AKST
Luna 9:52 PM AKST (12/7) 1:00 PM AKST (12/7)
Horas de luz 8h 25m
Horas de luz
6h 45m
Gibosa menguante, 76% of the Moon is Illuminated
Dic 7
Gibosa menguante
Dic 9
Cuarto menguante
Dic 17
Nueva
Dic 26
Cuarto creciente
Ene 1
Luna llena

Hourly Weather History & Observations

Hora (AKST) Temp. Vientos helados Punto de rocío Humedad Presión Visibilidad Wind Dir Velocidad del viento Velocidad de ráfagas Precip Eventos Condiciones
12:07 AM 39.9 ° F 30.2 ° F 37.0 ° F 89% 29.58 pul 2.5 mi NE 20.7 mph 29.9 mph 0.00 pul Lluvia Lluvia débil
12:18 AM 39.9 ° F 30.5 ° F 37.9 ° F 93% 29.57 pul 1.8 mi NE 19.6 mph - 0.02 pul Lluvia Lluvia
12:35 AM 39.9 ° F 30.8 ° F 39.0 ° F 97% 29.56 pul 2.0 mi NE 18.4 mph - 0.07 pul Lluvia Lluvia
12:53 AM 41.0 ° F 31.9 ° F 39.9 ° F 96% 29.55 pul 2.5 mi NE 19.6 mph - 0.12 pul Lluvia Lluvia
1:24 AM 41.0 ° F 31.9 ° F 39.9 ° F 96% 29.50 pul 3.0 mi NNE 19.6 mph - 0.09 pul Lluvia Lluvia
1:34 AM 42.1 ° F 32.8 ° F 39.9 ° F 92% 29.50 pul 2.5 mi NE 21.9 mph 29.9 mph 0.11 pul Lluvia Lluvia
1:53 AM 42.1 ° F 33.9 ° F 41.0 ° F 96% 29.50 pul 3.0 mi ENE 17.3 mph - 0.16 pul Lluvia Lluvia débil
2:53 AM 43.0 ° F 33.8 ° F 43.0 ° F 100% 29.46 pul 3.0 mi Este 23.0 mph - 0.04 pul Lluvia Lluvia débil
3:00 AM 43.0 ° F 34.0 ° F 43.0 ° F 100% 29.45 pul 2.5 mi Este 21.9 mph - 0.00 pul Lluvia Lluvia
3:12 AM 43.0 ° F 34.8 ° F 43.0 ° F 100% 29.45 pul 3.0 mi ESE 18.4 mph - 0.01 pul Lluvia Lluvia débil
3:16 AM 43.0 ° F 34.8 ° F 43.0 ° F 100% 29.45 pul 2.5 mi ESE 18.4 mph - 0.01 pul Lluvia Lluvia débil
3:23 AM 43.0 ° F 35.4 ° F 43.0 ° F 100% 29.45 pul 3.0 mi ESE 16.1 mph - 0.02 pul   Nublado
3:39 AM 43.0 ° F 36.8 ° F 43.0 ° F 100% 29.44 pul 6.0 mi SE 11.5 mph - 0.02 pul   Nublado
3:53 AM 43.0 ° F 36.4 ° F 43.0 ° F 100% 29.46 pul 4.0 mi SSE 12.7 mph - 0.02 pul Lluvia Lluvia débil
4:53 AM 42.1 ° F 36.1 ° F 37.0 ° F 82% 29.46 pul - SSE 10.4 mph - 0.00 pul   Muy nublado
5:34 AM 42.1 ° F 37.1 ° F 36.0 ° F 79% 29.46 pul 10.0 mi SE 8.1 mph - N/A   Muy nublado
5:53 AM 39.9 ° F 33.9 ° F 36.0 ° F 86% 29.46 pul 10.0 mi SE 9.2 mph - N/A   Nublado
6:53 AM 39.9 ° F 36.7 ° F 37.0 ° F 89% 29.46 pul 10.0 mi ESE 4.6 mph - N/A   Nublado
7:37 AM 39.9 ° F 34.5 ° F 37.9 ° F 93% 29.44 pul 4.0 mi Este 8.1 mph - N/A   Nublado
7:53 AM 39.9 ° F 35.1 ° F 39.0 ° F 97% 29.44 pul 8.0 mi Este 6.9 mph - N/A   Nublado
8:51 AM 42.8 ° F 34.5 ° F 39.2 ° F 87% 29.42 pul 8.0 mi Este 18.4 mph - 0.00 pul Lluvia Lluvia débil
8:53 AM 42.1 ° F 33.6 ° F 39.9 ° F 92% 29.42 pul 7.0 mi Este 18.4 mph - 0.00 pul Lluvia Lluvia débil
9:53 AM 42.1 ° F 34.2 ° F 39.9 ° F 92% 29.41 pul 9.0 mi Este 16.1 mph - 0.00 pul   Nublado
10:00 AM 42.1 ° F 34.2 ° F 39.9 ° F 92% 29.40 pul 9.0 mi Este 16.1 mph - N/A   Nublado
10:53 AM 42.1 ° F 34.2 ° F 41.0 ° F 96% 29.39 pul 5.0 mi Este 16.1 mph - 0.00 pul Lluvia Lluvia débil
10:55 AM 42.1 ° F 34.2 ° F 41.0 ° F 96% 29.38 pul 4.0 mi Este 16.1 mph - 0.00 pul Lluvia Lluvia débil
11:02 AM 42.1 ° F 33.6 ° F 41.0 ° F 96% 29.38 pul 4.0 mi Este 18.4 mph - 0.00 pul Lluvia Lluvia débil
11:53 AM 43.0 ° F 34.5 ° F 41.0 ° F 93% 29.35 pul 3.0 mi Este 19.6 mph - 0.01 pul Lluvia Lluvia débil
12:53 PM 43.0 ° F 34.2 ° F 41.0 ° F 93% 29.34 pul 5.0 mi Este 20.7 mph - 0.04 pul Lluvia Lluvia débil
1:01 PM 42.1 ° F 33.1 ° F 41.0 ° F 96% 29.33 pul 5.0 mi Este 20.7 mph - 0.01 pul Lluvia Lluvia débil
1:53 PM 42.1 ° F 33.6 ° F 39.9 ° F 92% 29.32 pul 7.0 mi Este 18.4 mph - 0.02 pul Lluvia Lluvia débil
2:06 PM 42.1 ° F 33.3 ° F 39.9 ° F 92% 29.31 pul 8.0 mi Este 19.6 mph - 0.00 pul Lluvia Lluvia débil
2:50 PM 41.0 ° F 33.5 ° F 37.4 ° F 87% 29.31 pul 7.0 mi ESE 13.8 mph - 0.01 pul Lluvia Lluvia débil
2:53 PM 41.0 ° F 34.3 ° F 37.9 ° F 89% 29.31 pul 7.0 mi ESE 11.5 mph - 0.01 pul Lluvia Lluvia débil
3:07 PM 41.0 ° F 35.2 ° F 39.0 ° F 93% 29.30 pul 6.0 mi ESE 9.2 mph - 0.01 pul Lluvia Lluvia débil
3:26 PM 41.0 ° F 34.3 ° F 39.0 ° F 93% 29.29 pul 2.5 mi Este 11.5 mph - 0.01 pul   Nublado
3:29 PM 41.0 ° F 33.9 ° F 39.9 ° F 96% 29.29 pul 2.5 mi Este 12.7 mph - 0.01 pul   Nublado
3:35 PM 41.0 ° F 33.5 ° F 39.9 ° F 96% 29.29 pul 3.0 mi Este 13.8 mph - 0.01 pul   Nublado
3:48 PM 41.0 ° F 33.1 ° F 39.2 ° F 93% 29.28 pul 2.5 mi Este 15.0 mph - 0.01 pul Lluvia Lluvia débil
3:53 PM 41.0 ° F 33.1 ° F 39.9 ° F 96% 29.29 pul 2.0 mi Este 15.0 mph - 0.02 pul Lluvia Lluvia débil
4:22 PM 41.0 ° F 35.8 ° F 39.9 ° F 96% 29.28 pul 7.0 mi ESE 8.1 mph - 0.01 pul   Nublado
4:53 PM 41.0 ° F 38.0 ° F 41.0 ° F 100% 29.28 pul 9.0 mi Este 4.6 mph - 0.01 pul   Nublado
5:53 PM 41.0 ° F - 39.9 ° F 96% 29.29 pul 6.0 mi Sin viento Sin viento - 0.01 pul Lluvia Lluvia débil
6:00 PM 41.0 ° F - 39.9 ° F 96% 29.29 pul 9.0 mi Sin viento Sin viento - 0.00 pul Lluvia Lluvia débil
6:53 PM 41.0 ° F 37.1 ° F 39.0 ° F 93% 29.30 pul 9.0 mi ESE 5.8 mph - 0.01 pul   Nublado
7:53 PM 42.1 ° F 36.1 ° F 37.9 ° F 85% 29.30 pul 10.0 mi SE 10.4 mph - N/A   Nublado
8:53 PM 42.1 ° F 36.1 ° F 37.9 ° F 85% 29.30 pul 10.0 mi ESE 10.4 mph - N/A   Nublado
9:46 PM 42.1 ° F 35.2 ° F 37.9 ° F 85% 29.31 pul 10.0 mi SE 12.7 mph - 0.00 pul   Nublado
9:53 PM 42.1 ° F 34.5 ° F 39.0 ° F 89% 29.31 pul 7.0 mi SE 15.0 mph - 0.01 pul Lluvia Lluvia débil
10:31 PM 42.1 ° F 34.5 ° F 39.0 ° F 89% 29.32 pul 10.0 mi SE 15.0 mph - 0.02 pul Lluvia Lluvia débil
10:53 PM 42.1 ° F 35.2 ° F 39.0 ° F 89% 29.33 pul 4.0 mi SE 12.7 mph - 0.02 pul Lluvia Lluvia débil
11:26 PM 42.1 ° F 35.7 ° F 37.9 ° F 85% 29.33 pul 10.0 mi SE 11.5 mph - 0.00 pul   Nublado
11:53 PM 42.1 ° F 35.7 ° F 37.0 ° F 82% 29.34 pul 10.0 mi SE 11.5 mph - 0.00 pul   Nublado